Regional Weather Roundup
Issued by NWS

Home | Current Version | Previous Version | Graphics & Text | Print | Product List | Glossary On
Versions: 1 2 3 4 5 6 7 8 9 10 11 12 13 14 15 16 17 18 19 20 21 22 23 24 25 26 27 28 29 30 31 32 33 34 35 36 37 38 39 40 41 42 43 44 45 46 47 48 49 50
000
ASUS43 KBIS 280210
RWRND

NORTH DAKOTA REGIONAL WEATHER ROUNDUP
NATIONAL WEATHER SERVICE BISMARCK ND
900 PM CDT TUE SEP 27 2016

NOTE: "FAIR" INDICATES FEW OR NO CLOUDS BELOW 12,000 FEET WITH NO
SIGNIFICANT WEATHER AND/OR OBSTRUCTIONS TO VISIBILITY.


NDZ001>003-009>011-017-280300-
NORTHWEST NORTH DAKOTA

CITY           SKY/WX    TMP DP  RH WIND       PRES   REMARKS
WILLISTON      CLEAR     57  50  77 CALM      29.94R
MINOT          CLEAR     55  42  61 E6        29.97R HAZE
MINOT AFB      CLEAR     52  41  66 SE5       29.97R
$$

NDZ018>021-031>035-040>046-280300-
SOUTHWEST NORTH DAKOTA

CITY           SKY/WX    TMP DP  RH WIND       PRES   REMARKS
BISMARCK       CLEAR     52  44  74 E5        29.98R
DICKINSON      CLEAR     62  47  57 S5        29.97R
GARRISON         N/A     56  43  61 E7        29.97R
HETTINGER ARPT CLEAR     59  46  62 CALM      30.01R
$$

NDZ004>008-012>016-024-026-027-054-280300-
NORTHEAST NORTH DAKOTA

CITY           SKY/WX    TMP DP  RH WIND       PRES   REMARKS
GRAND FORKS    CLOUDY    53  46  77 N7        29.98R
GRND FRKS AFB  MOCLDY    46  45  93 N6        29.99R
DEVILS LAKE    CLEAR     49  41  74 E7        30.00R
$$

NDZ022-023-025-028>030-036>039-047>053-280300-
SOUTHEAST NORTH DAKOTA

CITY           SKY/WX    TMP DP  RH WIND       PRES   REMARKS
FARGO          CLOUDY    54  44  69 N12       29.95R
JAMESTOWN      CLEAR     48  36  63 NE6       29.97R
$$





USA.gov is the U.S. government's official web portal to all federal, state and local government web resources and services.